EHI
0 0 0 0 0 0 0 0 0 0 0 0 0 0 0 0 0 0 0 0 0 0 0 0 0 0 0 1 2 3 3 3 3 3 3 3 1 0 0 0 0 0 0 0
0 0 0 0 0 0 0 0 0 0 0 0 0 0 0 0 0 0 0 0 0 0 0 0 0 0 0 0 1 2 3 3 3 3 3 3 2 1 0 0 0 0 0 0
0 0 0 0 0 0 0 0 0 0 0 0 0 0 0 0 0 0 0 0 0 0 0 0 0 0 0 0 0 1 3 3 3 3 3 3 2 1 0 0 0 0 0 0
0 0 0 0 0 0 0 0 0 0 0 0 0 0 0 0 0 0 0 0 0 0 0 0 0 0 0 0 0 1 2 3 3 3 3 3 1 0 0 0 0 0 0 0
0 0 0 0 0 0 0 0 0 0 0 0 0 0 0 0 0 0 0 0 0 0 0 0 0 0 0 0 0 0 1 1 2 3 3 3 1 1 1 1 1 1 1 1
0 0 0 0 0 0 0 0 0 0 0 0 0 0 0 0 0 0 0 0 0 0 0 0 0 0 0 0 0 0 0 0 1 2 2 2 2 2 2 2 2 2 2 2
0 0 0 0 0 0 0 0 0 0 0 0 0 0 0 0 0 0 0 0 0 0 0 0 0 0 1 1 0 0 0 0 0 1 1 1 1 1 1 1 1 1 1 1
0 0 0 0 0 0 0 0 0 0 0 0 0 0 0 0 0 0 0 0 0 0 0 0 0 1 2 1 0 0 0 0 0 0 0 0 0 0 0 0 0 0 0 0
0 0 0 0 0 0 0 0 0 0 0 0 0 0 0 0 0 0 0 0 0 0 0 0 0 1 1 1 0 0 0 0 0 0 0 0 0 0 0 0 0 0 0 0
0 0 0 0 0 0 0 0 0 0 0 0 0 0 0 0 0 0 0 0 0 0 0 0 0 0 0 0 0 0 0 0 0 0 0 0 0 0 0 0 0 0 0 0
0 0 0 0 0 0 0 0 0 0 0 0 0 0 0 0 0 0 0 0 0 0 0 0 0 0 0 0 0 0 0 0 0 0 0 0 0 0 0 0 0 0 0 0
0 0 0 0 0 0 0 0 0 0 0 0 0 0 0 0 0 0 0 0 0 0 0 0 0 0 0 0 0 0 0 0 0 0 0 0 0 0 0 0 0 0 0 0
0 0 0 0 0 0 0 0 0 0 0 0 0 0 0 0 0 0 0 0 0 0 0 0 0 0 0 0 0 0 0 0 0 0 0 0 0 0 0 0 0 0 0 0
0 0 0 0 0 0 0 0 0 0 0 0 0 0 0 0 0 0 0 0 0 0 0 0 0 0 0 0 0 0 0 0 0 0 0 0 0 0 0 0 0 0 0 0
0 0 0 0 0 0 0 0 0 0 0 0 0 0 0 0 0 0 0 0 0 0 0 0 0 0 0 0 0 0 0 0 0 0 0 0 0 0 0 0 0 0 0 0
0 0 0 0 0 0 0 0 0 0 0 0 0 0 0 0 0 0 0 0 0 0 0 0 0 0 0 0 0 0 0 0 0 0 0 0 0 0 0 0 0 0 0 0
0 0 0 0 0 0 0 0 0 0 0 0 0 0 0 0 0 0 0 0 0 0 0 0 0 0 0 0 0 0 0 0 0 0 0 0 0 0 0 0 0 0 0 0
0 0 0 0 0 0 0 0 0 0 0 0 0 0 0 0 0 0 0 0 0 0 0 0 0 0 0 0 0 0 0 0 0 0 0 0 0 0 0 0 0 0 0 0
0 0 0 0 0 0 0 0 0 0 0 0 0 0 0 0 0 0 0 0 0 0 0 0 0 0 0 0 0 0 0 0 0 0 0 0 0 0 0 0 0 0 0 0
0 0 0 0 0 0 0 0 0 0 0 0 0 0 0 0 0 0 0 0 0 0 0 0 0 0 0 0 0 0 0 0 0 0 0 0 0 0 0 0 0 0 0 0
0 0 0 0 0 0 0 0 0 0 0 0 0 0 0 0 0 0 0 0 0 0 0 0 0 0 0 0 0 0 0 0 0 0 0 0 0 0 0 0 0 0 0 0
0 0 0 0 0 0 0 0 0 0 0 0 0 0 0 0 0 0 0 0 0 0 0 0 0 0 0 0 0 0 0 0 0 0 0 0 0 0 0 0 0 0 0 0
0 0 0 0 0 0 0 0 0 0 0 0 0 0 0 0 0 0 0 0 0 0 0 0 0 0 0 0 0 0 0 0 0 0 0 0 0 0 0 0 0 0 0 0
0 0 0 0 0 0 0 0 0 0 0 0 0 0 0 0 0 0 0 0 0 0 0 0 0 0 0 0 0 0 0 0 0 0 0 0 0 0 0 0 0 0 0 0
0 0 0 0 0 0 0 0 0 0 0 0 0 0 0 0 0 0 0 0 0 0 0 0 0 0 0 0 0 0 0 0 0 0 0 0 0 0 0 0 0 0 0 0
0 0 0 0 0 0 0 0 0 0 0 0 0 0 0 0 0 0 0 0 0 0 0 0 0 0 0 0 0 0 0 0 0 0 0 0 0 0 0 0 0 0 0 0
0 0 0 0 0 0 0 0 0 0 0 0 0 0 0 0 0 0 0 0 0 0 0 0 0 0 0 0 0 0 0 0 0 0 0 0 0 0 0 0 0 0 0 0
Wind_Speed
7 5 5 7 8 9 11 11 11 10 9 7 5 4 3 2 2 1 2 1 1 1 2 2 2 2 2 2 2 3 3 4 4 4 4 4 4 5 5 5 5 5 5 5
6 6 7 9 10 10 11 10 11 11 9 6 4 3 2 2 2 2 2 2 2 2 2 2 3 3 3 3 3 3 4 4 4 4 4 4 5 5 5 5 5 5 5 6
6 5 7 9 8 9 8 7 8 9 6 2 3 3 3 2 2 3 3 3 3 3 3 3 4 4 4 4 4 4 4 4 4 4 4 5 5 5 5 6 6 6 6 6
5 5 9 1 2 3 6 5 6 6 4 3 4 3 3 3 3 3 3 3 3 3 4 4 4 4 4 3 3 4 4 4 4 4 5 5 5 5 6 5 5 5 6 7
5 7 8 4 2 3 5 5 3 4 3 2 2 3 2 2 3 3 3 4 4 4 4 4 4 4 4 3 3 4 4 5 4 5 5 5 5 6 5 5 5 6 6 7
6 7 6 1 2 1 4 5 0 2 2 1 2 4 2 2 3 4 4 4 4 4 4 4 4 3 3 4 4 4 4 5 5 5 5 5 5 5 5 4 5 5 5 6
9 8 6 1 1 3 5 2 2 1 1 2 3 4 3 3 3 4 4 4 4 4 4 4 4 4 4 4 4 5 4 5 4 4 4 4 5 4 4 4 4 5 5 5
6 8 5 3 3 3 3 3 1 1 2 2 3 3 2 3 3 4 4 5 5 4 4 4 4 4 4 4 5 4 4 4 4 4 4 4 4 4 4 4 4 5 5 5
5 3 3 2 2 2 3 2 2 2 2 2 2 3 3 3 4 4 4 5 5 4 4 4 4 4 5 5 5 4 4 4 4 5 4 4 4 4 4 4 4 4 4 4
6 5 3 3 3 3 3 3 2 2 2 2 3 3 3 3 3 4 5 5 5 5 5 5 5 5 5 5 5 5 5 5 4 4 4 4 4 4 4 4 4 4 4 4
8 5 5 4 4 3 2 2 2 2 3 3 3 3 3 3 4 4 4 5 5 5 5 6 5 5 5 5 5 5 5 5 5 4 5 5 4 3 4 4 4 4 4 4
7 5 6 5 3 3 3 3 3 3 3 3 3 3 4 4 4 4 4 5 5 6 6 6 5 5 5 5 5 5 5 5 4 4 4 3 3 3 2 3 3 4 5 6
7 6 6 5 4 4 4 4 3 3 4 4 3 3 4 4 4 4 4 5 5 6 6 6 6 6 6 5 5 6 5 5 4 4 4 3 3 3 3 2 1 2 3 4
5 5 5 5 4 3 3 3 3 3 3 3 3 3 3 4 4 4 5 5 5 5 6 6 6 7 6 6 6 6 6 5 4 4 3 3 3 3 3 3 3 3 2 2
5 6 6 4 3 3 3 3 3 4 3 3 3 3 3 4 4 4 5 5 5 5 6 6 7 7 6 6 6 6 5 4 4 4 4 4 3 3 3 4 4 3 3 2
4 4 4 4 4 4 4 4 4 4 4 4 3 3 4 3 3 4 4 4 5 6 6 6 7 7 6 6 6 5 5 5 5 4 4 4 3 3 3 3 3 3 3 3
4 4 4 4 4 4 4 5 5 5 4 4 4 3 3 3 3 4 4 4 5 6 6 6 7 6 6 6 6 5 4 4 5 4 4 4 3 3 3 3 3 4 4 3
5 5 5 5 4 4 4 4 4 5 4 4 4 3 3 4 4 4 4 4 5 5 6 6 7 6 6 5 5 4 4 4 4 4 4 3 3 3 3 3 3 4 3 3
2 3 3 3 3 4 4 4 4 4 4 3 4 4 4 4 4 4 4 4 5 6 6 6 6 6 6 5 5 4 4 4 4 4 4 4 3 3 3 3 3 3 3 3
1 1 1 1 2 2 3 3 3 3 3 4 4 4 4 4 4 4 5 5 4 5 6 6 6 5 5 4 4 4 4 4 3 3 4 4 3 3 3 3 3 3 3 3
1 1 1 1 2 3 3 3 3 3 4 4 4 5 4 4 4 4 5 5 5 5 5 5 4 4 4 4 4 4 4 4 4 4 4 4 4 4 3 3 3 3 3 3
2 2 2 2 2 3 3 3 3 3 4 4 4 4 4 4 4 4 5 5 4 4 4 4 4 4 5 5 4 4 4 4 4 3 3 3 3 3 3 3 3 3 3 3
2 2 2 3 3 3 3 3 3 4 4 4 5 5 5 4 4 4 5 4 3 4 4 4 4 5 7 5 4 4 4 4 4 4 3 3 3 3 3 3 3 3 3 3
2 2 3 3 3 3 4 4 4 4 4 5 5 5 5 4 4 4 4 3 4 5 4 3 4 5 6 4 4 4 4 4 4 4 4 3 3 3 3 3 3 3 3 4
3 3 3 3 4 4 4 4 4 4 4 4 4 5 4 4 4 4 4 4 4 4 4 3 4 5 4 3 3 4 4 4 4 4 4 4 3 3 3 3 3 3 3 3
3 3 3 4 4 4 3 3 3 3 3 4 4 4 4 3 4 4 3 4 5 5 4 3 3 3 3 3 3 4 4 4 4 4 4 4 4 4 3 3 4 3 3 3
3 3 3 3 3 4 3 3 4 4 4 4 4 4 4 4 3 3 4 3 3 3 3 3 3 3 3 3 3 3 3 3 3 3 3 3 3 3 3 4 4 3 3 4
Wind_Direction
274 283 264 260 256 244 245 256 266 275 275 286 290 294 298 292 302 314 315 306 328 337 346 337 327 317 307 296 285 266 258 259 259 260 260 259 253 249 247 245 247 249 250 250
255 255 258 263 261 251 248 255 260 268 274 296 300 299 302 296 301 303 306 307 317 320 324 320 318 320 319 311 300 282 270 271 272 264 261 261 258 252 248 245 244 248 251 250
260 262 265 257 252 240 238 243 256 263 278 303 297 291 297 302 297 299 310 318 310 311 318 320 321 319 313 311 301 286 280 277 273 268 263 262 262 257 249 246 245 244 248 251
268 255 249 287 52 251 244 253 265 275 284 278 296 297 290 304 298 300 316 324 325 322 321 320 318 317 315 311 301 297 293 284 277 269 262 263 261 259 254 249 245 246 250 252
250 257 264 254 233 234 242 251 262 262 271 290 320 278 254 333 320 315 318 322 327 324 319 316 317 318 313 314 315 308 303 299 286 274 268 264 262 262 260 255 252 251 253 256
237 253 261 293 88 266 255 245 137 252 260 253 251 268 312 1 327 324 327 325 324 322 316 314 317 312 304 306 307 308 308 304 301 287 273 265 263 264 264 258 258 258 256 256
238 249 262 360 106 198 235 354 72 249 256 232 265 315 343 325 317 323 324 323 319 315 315 319 317 304 299 304 307 309 307 303 301 297 283 272 270 267 263 262 263 262 263 263
228 239 248 113 168 226 342 21 358 318 299 281 310 327 318 315 315 318 320 322 320 311 313 316 310 299 297 303 308 308 302 299 301 301 296 283 277 273 268 264 263 263 262 264
236 262 32 162 239 335 332 307 313 311 310 291 292 299 301 304 308 311 312 314 316 310 308 309 305 297 295 302 304 301 297 301 302 300 297 287 278 273 273 267 263 266 268 272
247 249 259 258 263 276 284 292 303 297 283 269 280 285 288 293 301 307 308 309 310 304 301 306 310 305 300 302 298 293 295 298 295 292 293 288 280 270 263 261 260 263 272 276
251 262 268 248 256 265 275 284 285 287 283 278 277 279 287 292 299 306 307 305 305 302 303 305 307 307 308 305 298 292 295 297 294 291 290 285 273 270 264 265 271 270 274 276
260 265 265 270 273 274 266 265 267 277 289 285 274 278 287 293 300 303 306 310 310 309 303 302 306 308 308 303 296 295 297 300 298 296 293 291 285 281 278 261 269 273 271 269
277 288 286 285 276 274 269 266 268 277 280 284 282 280 281 290 297 300 301 307 309 309 306 305 305 305 307 304 296 292 293 296 294 293 292 291 287 282 288 298 267 256 259 262
263 263 263 260 264 269 263 267 273 277 279 282 283 281 284 291 297 298 303 309 308 307 305 306 309 309 311 306 298 294 293 293 290 286 284 285 285 286 283 283 291 300 306 283
249 260 260 264 259 254 252 253 259 265 275 280 279 278 281 285 291 297 306 308 306 307 310 311 311 312 315 308 300 297 295 296 296 293 290 288 287 289 290 289 289 296 301 307
255 257 244 240 243 247 248 252 259 267 271 274 279 282 285 285 288 296 302 306 307 309 314 314 313 316 316 309 304 301 299 300 294 288 287 288 290 290 292 292 291 289 289 294
230 234 236 240 243 247 250 256 261 266 269 270 277 285 286 288 292 298 305 309 308 309 312 313 315 319 316 310 303 299 299 296 289 283 283 284 285 286 288 287 287 289 294 307
240 245 244 241 242 251 259 265 265 265 268 275 280 276 272 276 285 297 306 308 307 308 312 317 320 317 312 307 303 301 299 301 302 302 296 294 297 294 291 290 290 292 297 302
249 251 250 247 254 253 260 270 274 273 270 264 267 271 274 279 289 296 299 299 301 303 312 320 321 309 307 311 313 300 297 300 303 303 300 298 288 288 288 289 294 295 293 296
275 264 250 265 278 271 267 272 277 276 270 265 264 267 273 281 289 292 293 294 297 304 311 318 311 309 312 313 313 302 302 299 299 301 299 292 291 290 289 291 293 295 295 294
234 237 247 264 281 282 278 275 275 277 277 271 264 264 271 280 285 287 289 291 301 312 310 306 302 311 315 320 313 311 312 308 304 302 298 294 292 290 287 286 290 296 299 301
241 243 252 265 277 287 291 286 281 279 280 275 271 271 274 280 283 284 284 291 301 312 304 296 300 321 323 316 305 308 307 304 301 300 298 295 292 290 290 292 292 297 300 299
257 261 265 271 278 289 293 289 284 282 278 276 274 272 273 277 278 278 284 294 298 305 300 299 318 320 314 303 301 300 299 300 300 300 299 298 295 291 291 293 295 298 301 301
276 277 280 284 283 276 280 291 293 287 281 281 277 275 275 274 273 272 283 291 293 294 292 301 304 304 300 293 295 294 295 296 296 296 297 295 293 291 292 294 294 295 294 295
273 276 277 276 274 277 282 289 291 288 284 281 281 277 274 271 274 278 280 282 287 288 290 298 299 300 295 297 297 296 296 297 299 300 294 291 290 290 290 290 290 289 286 287
269 273 273 272 278 281 280 277 278 281 282 281 282 278 271 269 270 273 276 279 281 284 287 291 290 286 289 295 296 297 297 296 291 287 287 286 284 284 285 285 284 284 287 290
271 277 280 282 281 277 275 271 272 274 277 280 286 286 280 274 271 273 277 279 278 278 282 286 284 282 284 287 288 291 294 295 296 296 296 293 291 288 286 285 285 284 285 286